Plato, MN

7:26 AM CST on January 17, 2017 (GMT -0600)
Glencoe Municipal

Weather History for KGYL - March, 2014

Change the Weather History Date:

Thursday, March 13, 2014

  Actual Average (KHCD) Record (KHCD)
Temperature  
Mean Temperature 36 °F -  
Max Temperature 46 °F 38 °F 68 °F (1990)
Min Temperature 25 °F 21 °F -13 °F (1993)
Degree Days  
Heating Degree Days 30    
Moisture  
Dew Point 29 °F    
Average Humidity 75    
Maximum Humidity 86    
Minimum Humidity 65    
Precipitation  
Precipitation 0.00 in - - ()
Sea Level Pressure  
Sea Level Pressure 29.75 in    
Wind  
Wind Speed 7 mph (South)    
Max Wind Speed 10 mph    
Max Gust Speed 17 mph    
Visibility 10 miles    
Events      
Averages and records for this station are not official NWS values.
T = Trace of Precipitation, MM = Missing Value Source: NWS Daily Summary

Daily Weather History Graph

Daily Weather History Graph

Search for Another Location

Airport or City:

Trip Planner

Search our weather history database for the weather conditions in past years. The results will help you decide how hot, cold, wet, or windy it might be!

Date:

Astronomy

Mar. 13, 2014 Rise Set
Actual Time 7:32 AM CDT 7:19 PM CDT
Civil Twilight 7:03 AM CDT 7:49 PM CDT
Nautical Twilight 6:29 AM CDT 8:22 PM CDT
Astronomical Twilight 5:54 AM CDT 8:57 PM CDT
Moon 4:41 PM CDT (3/13) 5:45 AM CDT (3/13)
Length of Visible Light 12h 45m
Length of Day
11h 47m
Waxing Gibbous, 91% of the Moon is Illuminated
Mar 13
Waxing Gibbous
Mar 16
Full
Mar 23
Last Quarter
Mar 30
New
Apr 7
First Quarter

Hourly Weather History & Observations

Time (CDT) Temp. Windchill Dew Point Humidity Pressure Visibility Wind Dir Wind Speed Gust Speed Precip Events Conditions
12:12 AM 25.5 °F 18.7 °F 17.1 °F 70% 30.00 in 10.0 mi SSE 5.8 mph - N/A   Overcast
12:32 AM 25.7 °F 18.0 °F 17.1 °F 70% 29.99 in 10.0 mi SSE 6.9 mph - N/A   Overcast
12:53 AM 25.7 °F 19.0 °F 17.6 °F 71% 29.98 in 10.0 mi SSE 5.8 mph - N/A   Overcast
1:12 AM 26.1 °F 19.4 °F 18.3 °F 73% 29.97 in 10.0 mi South 5.8 mph - N/A   Overcast
1:33 AM 26.6 °F 20.0 °F 19.0 °F 73% 29.97 in 10.0 mi South 5.8 mph - N/A   Overcast
1:53 AM 27.0 °F 20.5 °F 19.4 °F 73% 29.96 in 10.0 mi South 5.8 mph - N/A   Overcast
2:13 AM 27.1 °F 20.7 °F 20.1 °F 75% 29.95 in 10.0 mi South 5.8 mph - N/A   Overcast
2:32 AM 27.5 °F 19.3 °F 20.7 °F 75% 29.95 in 10.0 mi South 8.1 mph - N/A   Overcast
2:52 AM 27.9 °F 19.8 °F 21.2 °F 76% 29.94 in 10.0 mi South 8.1 mph - N/A   Overcast
3:12 AM 28.2 °F 20.2 °F 21.9 °F 77% 29.92 in 10.0 mi South 8.1 mph - N/A   Overcast
3:32 AM 28.6 °F 21.5 °F 22.6 °F 78% 29.90 in 10.0 mi South 6.9 mph 17.3 mph N/A   Overcast
3:53 AM 28.9 °F 21.9 °F 23.0 °F 78% 29.89 in 10.0 mi South 6.9 mph - N/A   Overcast
4:12 AM 28.4 °F 20.4 °F 23.0 °F 80% 29.88 in 10.0 mi South 8.1 mph - N/A   Scattered Clouds
4:33 AM 28.4 °F 21.2 °F 23.4 °F 81% 29.87 in 10.0 mi South 6.9 mph - N/A   Clear
4:52 AM 28.4 °F 20.4 °F 23.7 °F 83% 29.86 in 10.0 mi South 8.1 mph - N/A   Clear
5:12 AM 28.2 °F 21.0 °F 23.7 °F 83% 29.86 in 10.0 mi South 6.9 mph - N/A   Clear
5:32 AM 28.2 °F 20.2 °F 23.9 °F 84% 29.85 in 10.0 mi South 8.1 mph - N/A   Clear
5:52 AM 28.2 °F 20.2 °F 23.9 °F 84% 29.85 in 10.0 mi South 8.1 mph - N/A   Clear
6:12 AM 28.2 °F 20.2 °F 23.9 °F 84% 29.84 in 10.0 mi South 8.1 mph - N/A   Clear
6:33 AM 28.2 °F 21.0 °F 24.3 °F 85% 29.84 in 10.0 mi South 6.9 mph - N/A   Clear
6:52 AM 28.0 °F 20.8 °F 23.9 °F 84% 29.83 in 10.0 mi South 6.9 mph - N/A   Clear
7:12 AM 28.0 °F 21.7 °F 24.1 °F 85% 29.83 in 10.0 mi South 5.8 mph - N/A   Clear
7:33 AM 28.0 °F 21.7 °F 24.1 °F 85% 29.83 in 10.0 mi SSW 5.8 mph - N/A   Clear
7:53 AM 27.9 °F 20.6 °F 24.1 °F 86% 29.83 in 10.0 mi SSW 6.9 mph - N/A   Clear
8:12 AM 28.4 °F 22.2 °F 24.6 °F 86% 29.82 in 10.0 mi SSW 5.8 mph - N/A   Clear
8:33 AM 28.9 °F 22.8 °F 25.0 °F 85% 29.81 in 10.0 mi SSW 5.8 mph - N/A   Clear
8:53 AM 30.2 °F 24.3 °F 25.5 °F 83% 29.81 in 10.0 mi SSW 5.8 mph - N/A   Clear
9:12 AM 31.5 °F 23.5 °F 26.4 °F 82% 29.80 in 10.0 mi SSW 9.2 mph - N/A   Clear
9:33 AM 32.4 °F 26.9 °F 27.1 °F 81% 29.80 in 10.0 mi SSW 5.8 mph - N/A   Clear
9:53 AM 33.6 °F 29.4 °F 28.0 °F 80% 29.80 in 10.0 mi SSW 4.6 mph - N/A   Clear
10:12 AM 34.7 °F 30.6 °F 28.4 °F 78% 29.80 in 10.0 mi SSW 4.6 mph - N/A   Clear
10:33 AM 36.1 °F 30.6 °F 29.1 °F 76% 29.79 in 10.0 mi SSW 6.9 mph - N/A   Clear
10:53 AM 37.4 °F 32.8 °F 29.8 °F 74% 29.79 in 10.0 mi SSW 5.8 mph - N/A   Clear
11:13 AM 38.5 °F 33.4 °F 30.2 °F 72% 29.78 in 10.0 mi SSW 6.9 mph - N/A   Clear
11:32 AM 39.6 °F 35.4 °F 30.6 °F 70% 29.77 in 10.0 mi SSW 5.8 mph - N/A   Clear
11:53 AM 40.1 °F 36.1 °F 30.9 °F 70% 29.77 in 10.0 mi SSW 5.8 mph - N/A   Clear
12:13 PM 40.1 °F 35.3 °F 31.1 °F 70% 29.76 in 10.0 mi SSW 6.9 mph - N/A   Clear
12:30 PM 41.2 °F 37.3 °F 31.6 °F 69% 29.75 in 10.0 mi SSW 5.8 mph - N/A   Clear
12:53 PM 41.5 °F 37.1 °F 32.0 °F 69% 29.74 in 10.0 mi SSW 6.9 mph - N/A   Clear
1:12 PM 42.1 °F 38.4 °F 32.0 °F 67% 29.74 in 10.0 mi SSW 5.8 mph - N/A   Clear
1:33 PM 42.4 °F 38.1 °F 32.2 °F 67% 29.74 in 10.0 mi SSW 6.9 mph - N/A   Clear
1:52 PM 42.8 °F 38.6 °F 32.4 °F 67% 29.72 in 10.0 mi SSW 6.9 mph - N/A   Clear
2:13 PM 42.8 °F 38.0 °F 32.9 °F 68% 29.72 in 10.0 mi SSW 8.1 mph - N/A   Clear
2:32 PM 43.9 °F 41.3 °F 32.9 °F 65% 29.70 in 10.0 mi South 4.6 mph - N/A   Clear
2:53 PM 44.4 °F 40.0 °F 33.3 °F 65% 29.69 in 10.0 mi South 8.1 mph - N/A   Clear
3:13 PM 44.1 °F 39.5 °F 33.6 °F 67% 29.68 in 10.0 mi South 8.1 mph - N/A   Clear
3:32 PM 45.5 °F 42.5 °F 34.3 °F 65% 29.68 in 10.0 mi South 5.8 mph - N/A   Clear
3:52 PM 45.7 °F 42.7 °F 34.9 °F 66% 29.67 in 10.0 mi South 5.8 mph - N/A   Clear
4:12 PM 45.9 °F 42.9 °F 35.6 °F 67% 29.66 in 10.0 mi South 5.8 mph - N/A   Clear
4:33 PM 46.0 °F 43.1 °F 35.8 °F 67% 29.65 in 10.0 mi South 5.8 mph - N/A   Clear
4:53 PM 46.4 °F 43.5 °F 36.1 °F 67% 29.65 in 10.0 mi South 5.8 mph - N/A   Clear
5:12 PM 45.1 °F 39.9 °F 35.4 °F 69% 29.64 in 10.0 mi South 10.4 mph - N/A   Clear
5:33 PM 45.5 °F 40.8 °F 35.6 °F 68% 29.63 in 10.0 mi South 9.2 mph - N/A   Clear
5:52 PM 45.5 °F 40.3 °F 35.2 °F 67% 29.62 in 10.0 mi South 10.4 mph - N/A   Clear
6:13 PM 45.3 °F 40.6 °F 35.4 °F 68% 29.61 in 10.0 mi South 9.2 mph - N/A   Clear
6:33 PM 45.5 °F 41.8 °F 35.8 °F 69% 29.60 in 10.0 mi South 6.9 mph - N/A   Clear
6:53 PM 45.1 °F 40.8 °F 36.0 °F 70% 29.60 in 10.0 mi South 8.1 mph - N/A   Clear
7:13 PM 43.7 °F 39.1 °F 36.0 °F 74% 29.59 in 10.0 mi South 8.1 mph - N/A   Clear
7:31 PM 43.7 °F 39.1 °F 35.8 °F 74% 29.59 in 10.0 mi South 8.1 mph - N/A   Clear
7:52 PM 43.2 °F 39.0 °F 35.6 °F 75% 29.59 in 10.0 mi South 6.9 mph - N/A   Clear
8:11 PM 42.1 °F 38.4 °F 35.1 °F 76% 29.58 in 10.0 mi South 5.8 mph - N/A   Clear
8:32 PM 41.4 °F 36.8 °F 35.6 °F 80% 29.58 in 10.0 mi South 6.9 mph - N/A   Clear
8:53 PM 40.6 °F 36.0 °F 34.5 °F 79% 29.57 in 10.0 mi South 6.9 mph - N/A   Clear
9:12 PM 41.2 °F 37.3 °F 34.9 °F 78% 29.56 in 10.0 mi South 5.8 mph - N/A   Clear
9:32 PM 41.4 °F 37.6 °F 34.9 °F 78% 29.56 in 10.0 mi South 5.8 mph - N/A   Clear
9:53 PM 40.6 °F 36.7 °F 34.2 °F 78% 29.55 in 10.0 mi SSW 5.8 mph - N/A   Clear
10:12 PM 40.6 °F 36.7 °F 34.5 °F 79% 29.55 in 10.0 mi SSW 5.8 mph - N/A   Clear
10:31 PM 40.5 °F 36.5 °F 33.6 °F 77% 29.54 in 10.0 mi SSW 5.8 mph - N/A   Clear
10:52 PM 43.0 °F 39.5 °F 33.8 °F 70% 29.54 in 10.0 mi SSW 5.8 mph - N/A   Clear
11:12 PM 42.6 °F 38.4 °F 33.1 °F 69% 29.53 in 10.0 mi SSW 6.9 mph - N/A   Clear
11:33 PM 42.8 °F 39.3 °F 32.9 °F 68% 29.52 in 10.0 mi SSW 5.8 mph - N/A   Clear
11:52 PM 41.7 °F 38.0 °F 32.4 °F 69% 29.52 in 10.0 mi SW 5.8 mph - N/A   Clear